| time (UTC) | temp C | wind direction | speed KPH | gust KPH | rain 1hr cm | rain 24hr cm | rain mn cm | humidity % | barometer mb |
| 20260505152205 | 2 | 11 | 1.6 | 4.8 | 0.00 | 0.76 | 0.25 | 94 | 1016.3 |
| 20260505151705 | 2 | 11 | 0.0 | 4.8 | 0.03 | 0.76 | 0.25 | 94 | 1016.4 |
| 20260505151204 | 2 | 11 | 0.0 | 1.6 | 0.03 | 0.76 | 0.25 | 94 | 1016.3 |
| 20260505150205 | 2 | 11 | 0.0 | 3.2 | 0.03 | 0.76 | 0.25 | 95 | 1016.4 |
| 20260505140205 | 2 | 11 | 1.6 | 4.8 | 0.03 | 0.74 | 0.23 | 94 | 1016.7 |
| 20260505130204 | 2 | 15 | 1.6 | 4.8 | 0.03 | 0.71 | 0.20 | 93 | 1016.1 |
| 20260505124705 | 2 | 22 | 4.8 | 14.5 | 0.03 | 0.69 | 0.18 | 93 | 1015.7 |
| 20260505124204 | 2 | 0 | 3.2 | 8.0 | 0.03 | 0.69 | 0.18 | 93 | 1015.6 |
| 20260505123705 | 2 | 0 | 3.2 | 8.0 | 0.03 | 0.69 | 0.18 | 93 | 1015.6 |
| 20260505123205 | 2 | 349 | 0.0 | 14.5 | 0.03 | 0.69 | 0.18 | 93 | 1015.5 |
| 20260505122704 | 2 | 11 | 4.8 | 12.9 | 0.03 | 0.69 | 0.18 | 93 | 1015.5 |
| 20260505122205 | 2 | 328 | 1.6 | 4.8 | 0.05 | 0.69 | 0.18 | 93 | 1015.6 |
| 20260505121705 | 2 | 297 | 3.2 | 9.7 | 0.08 | 0.69 | 0.18 | 93 | 1015.6 |
| 20260505121204 | 2 | 10 | 4.8 | 16.1 | 0.08 | 0.69 | 0.18 | 92 | 1015.5 |
| 20260505120704 | 2 | 0 | 3.2 | 8.0 | 0.13 | 0.69 | 0.18 | 93 | 1015.4 |
| 20260505120204 | 2 | 0 | 3.2 | 11.3 | 0.13 | 0.69 | 0.18 | 92 | 1015.4 |
| 20260505115705 | 3 | 14 | 1.6 | 4.8 | 0.13 | 0.69 | 0.18 | 92 | 1015.3 |
| 20260505114204 | 3 | 20 | 4.8 | 16.1 | 0.13 | 0.66 | 0.15 | 92 | 1015.3 |
| 20260505113704 | 3 | 2 | 4.8 | 9.7 | 0.13 | 0.66 | 0.15 | 92 | 1015.3 |
| 20260505113204 | 3 | 350 | 4.8 | 19.3 | 0.13 | 0.66 | 0.15 | 92 | 1015.3 |
| 20260505112704 | 3 | 46 | 4.8 | 22.5 | 0.13 | 0.66 | 0.15 | 92 | 1015.1 |
| 20260505112204 | 3 | 14 | 9.7 | 19.3 | 0.10 | 0.64 | 0.13 | 92 | 1015.1 |
| 20260505111204 | 4 | 83 | 1.6 | 4.8 | 0.08 | 0.61 | 0.10 | 92 | 1015.1 |
| 20260505110204 | 4 | 356 | 6.4 | 12.9 | 0.03 | 0.56 | 0.05 | 92 | 1014.9 |
| 20260505102204 | 5 | 322 | 6.4 | 20.9 | 0.00 | 0.53 | 0.03 | 92 | 1014.1 |
| 20260505101704 | 5 | 12 | 9.7 | 25.7 | 0.00 | 0.53 | 0.03 | 92 | 1014.0 |
| 20260505101204 | 5 | 346 | 6.4 | 19.3 | 0.00 | 0.53 | 0.03 | 92 | 1013.9 |
| 20260505100704 | 5 | 354 | 6.4 | 22.5 | 0.00 | 0.53 | 0.03 | 92 | 1014.0 |
| 20260505100204 | 5 | 354 | 8.0 | 19.3 | 0.00 | 0.53 | 0.03 | 92 | 1014.0 |
| 20260505095704 | 5 | 2 | 4.8 | 14.5 | 0.00 | 0.53 | 0.03 | 92 | 1013.9 |
| 20260505095205 | 5 | 13 | 8.0 | 19.3 | 0.00 | 0.53 | 0.03 | 93 | 1013.8 |
| 20260505094704 | 5 | 18 | 0.0 | 9.7 | 0.00 | 0.53 | 0.03 | 93 | 1013.7 |
| 20260505094204 | 5 | 50 | 4.8 | 12.9 | 0.03 | 0.53 | 0.03 | 93 | 1013.6 |
| 20260505093704 | 5 | 9 | 3.2 | 16.1 | 0.03 | 0.53 | 0.03 | 93 | 1013.7 |
| 20260505093204 | 5 | 339 | 3.2 | 12.9 | 0.03 | 0.53 | 0.03 | 92 | 1013.7 |
| 20260505092704 | 6 | 318 | 4.8 | 20.9 | 0.03 | 0.53 | 0.03 | 92 | 1013.6 |
| 20260505091704 | 6 | 3 | 4.8 | 14.5 | 0.03 | 0.53 | 0.03 | 92 | 1013.7 |
| 20260505091204 | 6 | 329 | 3.2 | 8.0 | 0.03 | 0.53 | 0.03 | 92 | 1013.6 |
| 20260505090705 | 6 | 30 | 3.2 | 9.7 | 0.03 | 0.53 | 0.03 | 92 | 1013.5 |
| 20260505090203 | 6 | 351 | 4.8 | 24.1 | 0.03 | 0.53 | 0.03 | 92 | 1013.5 |
| 20260505085204 | 6 | 339 | 1.6 | 9.7 | 0.03 | 0.53 | 0.03 | 92 | 1013.6 |
| 20260505084704 | 6 | 316 | 3.2 | 16.1 | 0.03 | 0.53 | 0.03 | 91 | 1013.5 |
| 20260505084204 | 7 | 294 | 4.8 | 16.1 | 0.00 | 0.51 | 0.00 | 91 | 1013.4 |
| 20260505083704 | 7 | 4 | 4.8 | 16.1 | 0.00 | 0.51 | 0.00 | 91 | 1013.4 |
| 20260505083204 | 8 | 4 | 8.0 | 16.1 | 0.00 | 0.51 | 0.00 | 92 | 1013.4 |
| 20260505082703 | 8 | 355 | 1.6 | 11.3 | 0.00 | 0.51 | 0.00 | 93 | 1013.4 |
| 20260505081704 | 8 | 178 | 0.0 | 0.0 | 0.00 | 0.51 | 0.00 | 93 | 1013.4 |
| 20260505081204 | 7 | 178 | 0.0 | 0.0 | 0.00 | 0.51 | 0.00 | 92 | 1013.3 |
| 20260505080704 | 7 | 178 | 0.0 | 0.0 | 0.00 | 0.51 | 0.00 | 92 | 1013.4 |
| 20260505080205 | 7 | 178 | 0.0 | 0.0 | 0.00 | 0.51 | 0.00 | 92 | 1013.3 |
| 20260505075705 | 7 | 178 | 0.0 | 0.0 | 0.00 | 0.51 | 0.00 | 92 | 1013.3 |
| 20260505075204 | 7 | 178 | 0.0 | 0.0 | 0.00 | 0.51 | 0.00 | 92 | 1013.2 |
| 20260505074704 | 7 | 178 | 0.0 | 0.0 | 0.00 | 0.51 | 0.00 | 92 | 1013.2 |
| 20260505073704 | 7 | 178 | 0.0 | 0.0 | 0.00 | 0.51 | 0.00 | 92 | 1013.3 |
| 20260505072704 | 7 | 178 | 0.0 | 1.6 | 0.00 | 0.51 | 0.00 | 92 | 1013.3 |
| 20260505072205 | 8 | 178 | 0.0 | 0.0 | 0.00 | 0.51 | 0.00 | 92 | 1013.1 |
| 20260505071704 | 8 | 178 | 0.0 | 4.8 | 0.00 | 0.51 | 0.00 | 92 | 1013.3 |
| 20260505071204 | 8 | 177 | 0.0 | 4.8 | 0.00 | 0.51 | 0.00 | 92 | 1013.3 |
| 20260505070704 | 7 | 258 | 0.0 | 3.2 | 0.00 | 0.51 | 0.00 | 92 | 1013.4 |
| 20260505070204 | 7 | 258 | 0.0 | 0.0 | 0.00 | 0.51 | 0.00 | 91 | 1013.5 |
| 20260505064703 | 7 | 258 | 0.0 | 1.6 | 0.00 | 0.51 | 0.00 | 91 | 1013.4 |
| 20260505064204 | 7 | 258 | 0.0 | 1.6 | 0.00 | 0.51 | 0.00 | 91 | 1013.4 |
| 20260505063704 | 7 | 258 | 0.0 | 0.0 | 0.00 | 0.51 | 0.00 | 91 | 1013.4 |
| 20260505063204 | 7 | 258 | 0.0 | 0.0 | 0.00 | 0.51 | 0.00 | 91 | 1013.4 |
| 20260505062704 | 7 | 258 | 0.0 | 1.6 | 0.00 | 0.51 | 0.00 | 90 | 1013.4 |
| 20260505061704 | 7 | 258 | 0.0 | 0.0 | 0.00 | 0.51 | 0.00 | 90 | 1013.4 |
| 20260505061204 | 7 | 258 | 0.0 | 0.0 | 0.00 | 0.51 | 0.00 | 90 | 1013.4 |
| 20260505060705 | 7 | 258 | 0.0 | 0.0 | 0.00 | 0.51 | 0.00 | 90 | 1013.5 |
| 20260505060204 | 7 | 258 | 0.0 | 0.0 | 0.00 | 0.51 | 0.00 | 90 | 1013.5 |
| 20260505055703 | 7 | 258 | 0.0 | 0.0 | 0.00 | 0.51 | 0.51 | 90 | 1013.5 |
| 20260505055204 | 7 | 258 | 0.0 | 0.0 | 0.00 | 0.51 | 0.51 | 90 | 1013.5 |
| 20260505054704 | 7 | 258 | 0.0 | 0.0 | 0.00 | 0.51 | 0.51 | 89 | 1013.5 |
| 20260505053704 | 7 | 258 | 0.0 | 0.0 | 0.00 | 0.51 | 0.51 | 89 | 1013.4 |
| 20260505053205 | 8 | 258 | 0.0 | 0.0 | 0.00 | 0.51 | 0.51 | 89 | 1013.3 |
| 20260505052704 | 8 | 258 | 0.0 | 0.0 | 0.00 | 0.51 | 0.51 | 89 | 1013.3 |
| 20260505052204 | 8 | 258 | 0.0 | 0.0 | 0.00 | 0.51 | 0.51 | 89 | 1013.3 |
| 20260505051704 | 8 | 258 | 0.0 | 0.0 | 0.00 | 0.51 | 0.51 | 89 | 1013.4 |
| 20260505051203 | 8 | 258 | 0.0 | 0.0 | 0.00 | 0.51 | 0.51 | 89 | 1013.5 |
| 20260505050704 | 8 | 258 | 0.0 | 0.0 | 0.00 | 0.51 | 0.51 | 89 | 1013.7 |
| 20260505050204 | 8 | 258 | 0.0 | 0.0 | 0.00 | 0.51 | 0.51 | 89 | 1013.7 |
| 20260505041703 | 8 | 258 | 0.0 | 0.0 | 0.15 | 0.51 | 0.51 | 87 | 1013.8 |
| 20260505041203 | 8 | 258 | 0.0 | 0.0 | 0.18 | 0.51 | 0.51 | 86 | 1014.0 |
| 20260505040704 | 8 | 258 | 0.0 | 0.0 | 0.20 | 0.51 | 0.51 | 86 | 1014.0 |
| 20260505040204 | 8 | 258 | 0.0 | 0.0 | 0.25 | 0.51 | 0.51 | 86 | 1014.0 |
| 20260505035704 | 9 | 258 | 0.0 | 1.6 | 0.25 | 0.51 | 0.51 | 85 | 1014.0 |
| 20260505035204 | 9 | 258 | 0.0 | 0.0 | 0.25 | 0.48 | 0.48 | 85 | 1013.8 |
| 20260505034703 | 9 | 258 | 0.0 | 0.0 | 0.23 | 0.46 | 0.46 | 85 | 1013.8 |
| 20260505033704 | 9 | 258 | 0.0 | 1.6 | 0.18 | 0.41 | 0.41 | 84 | 1014.0 |
| 20260505033204 | 9 | 258 | 0.0 | 1.6 | 0.18 | 0.41 | 0.41 | 83 | 1014.2 |
| 20260505032703 | 9 | 258 | 0.0 | 0.0 | 0.15 | 0.38 | 0.38 | 82 | 1014.1 |
| 20260505032203 | 10 | 258 | 1.6 | 4.8 | 0.13 | 0.36 | 0.36 | 81 | 1014.0 |
| 20260505031204 | 10 | 296 | 1.6 | 8.0 | 0.10 | 0.33 | 0.33 | 79 | 1013.7 |
| 20260505030703 | 10 | 284 | 0.0 | 8.0 | 0.08 | 0.30 | 0.30 | 77 | 1013.6 |
| 20260505030204 | 11 | 334 | 1.6 | 9.7 | 0.03 | 0.25 | 0.25 | 74 | 1013.5 |
| 20260505025704 | 11 | 267 | 1.6 | 9.7 | 0.03 | 0.25 | 0.25 | 72 | 1013.3 |
| 20260505024704 | 11 | 269 | 0.0 | 4.8 | 0.00 | 0.23 | 0.23 | 70 | 1013.0 |
| 20260505023704 | 11 | 211 | 1.6 | 8.0 | 0.00 | 0.23 | 0.23 | 69 | 1012.8 |
| 20260505023203 | 11 | 4 | 1.6 | 4.8 | 0.00 | 0.23 | 0.23 | 68 | 1012.8 |
| 20260505022703 | 11 | 11 | 1.6 | 4.8 | 0.00 | 0.23 | 0.23 | 67 | 1012.6 |
| 20260505022203 | 11 | 5 | 4.8 | 12.9 | 0.00 | 0.23 | 0.23 | 65 | 1012.6 |
| 20260505021705 | 12 | 350 | 4.8 | 12.9 | 0.00 | 0.23 | 0.23 | 63 | 1012.5 |
| 20260505021205 | 12 | 355 | 3.2 | 8.0 | 0.00 | 0.23 | 0.23 | 62 | 1012.5 |
| 20260505020706 | 12 | 5 | 3.2 | 9.7 | 0.00 | 0.23 | 0.23 | 60 | 1012.5 |
| 20260505020205 | 12 | 3 | 4.8 | 19.3 | 0.00 | 0.23 | 0.23 | 59 | 1012.6 |
| 20260505015705 | 13 | 152 | 0.0 | 0.0 | 0.00 | 0.23 | 0.23 | 59 | 1012.5 |
| 20260505015205 | 13 | 152 | 0.0 | 0.0 | 0.00 | 0.23 | 0.23 | 58 | 1012.4 |
| 20260505014706 | 13 | 152 | 0.0 | 0.0 | 0.00 | 0.23 | 0.23 | 58 | 1012.3 |
| 20260505014206 | 13 | 152 | 0.0 | 0.0 | 0.00 | 0.23 | 0.23 | 58 | 1012.1 |
| 20260505013706 | 13 | 152 | 0.0 | 0.0 | 0.00 | 0.23 | 0.23 | 57 | 1012.1 |
| 20260505013206 | 13 | 152 | 0.0 | 0.0 | 0.00 | 0.23 | 0.23 | 57 | 1012.0 |
| 20260505012206 | 13 | 152 | 0.0 | 1.6 | 0.00 | 0.23 | 0.23 | 55 | 1012.2 |
| 20260505011705 | 13 | 152 | 0.0 | 0.0 | 0.00 | 0.23 | 0.23 | 55 | 1012.1 |
| 20260505011206 | 13 | 152 | 0.0 | 0.0 | 0.00 | 0.23 | 0.23 | 54 | 1012.0 |
| 20260505010706 | 13 | 152 | 0.0 | 0.0 | 0.00 | 0.23 | 0.23 | 55 | 1012.1 |
| 20260505005705 | 13 | 152 | 0.0 | 4.8 | 0.00 | 0.23 | 0.23 | 55 | 1012.1 |
| 20260505005205 | 13 | 152 | 1.6 | 4.8 | 0.00 | 0.23 | 0.23 | 54 | 1012.1 |
| 20260505004705 | 14 | 201 | 3.2 | 14.5 | 0.00 | 0.23 | 0.23 | 53 | 1012.1 |
| 20260505003205 | 15 | 5 | 0.0 | 4.8 | 0.00 | 0.23 | 0.23 | 51 | 1012.3 |
| 20260505002705 | 15 | 9 | 1.6 | 4.8 | 0.00 | 0.23 | 0.23 | 51 | 1012.2 |
| 20260505002205 | 15 | 254 | 0.0 | 3.2 | 0.00 | 0.23 | 0.23 | 50 | 1012.3 |
| 20260505000705 | 15 | 292 | 1.6 | 4.8 | 0.00 | 0.23 | 0.23 | 47 | 1012.0 |
| 20260505000206 | 15 | 292 | 0.0 | 4.8 | 0.00 | 0.23 | 0.23 | 48 | 1011.8 |
| 20260504235206 | 15 | 292 | 0.0 | 1.6 | 0.00 | 0.23 | 0.23 | 47 | 1011.6 |
| 20260504234705 | 15 | 292 | 3.2 | 4.8 | 0.00 | 0.23 | 0.23 | 46 | 1011.6 |
| 20260504234206 | 15 | 353 | 1.6 | 8.0 | 0.00 | 0.23 | 0.23 | 46 | 1011.4 |
| 20260504233705 | 15 | 358 | 4.8 | 12.9 | 0.00 | 0.23 | 0.23 | 45 | 1011.4 |
| 20260504232705 | 15 | 317 | 0.0 | 12.9 | 0.00 | 0.23 | 0.23 | 45 | 1011.3 |
| 20260504232205 | 15 | 286 | 3.2 | 12.9 | 0.00 | 0.23 | 0.23 | 44 | 1011.4 |
| 20260504231705 | 16 | 308 | 3.2 | 11.3 | 0.00 | 0.23 | 0.23 | 43 | 1011.3 |
| 20260504231206 | 16 | 352 | 6.4 | 19.3 | 0.00 | 0.23 | 0.23 | 42 | 1011.3 |
| 20260504230705 | 16 | 348 | 4.8 | 19.3 | 0.00 | 0.23 | 0.23 | 41 | 1011.2 |
| 20260504230205 | 16 | 11 | 8.0 | 19.3 | 0.00 | 0.23 | 0.23 | 40 | 1011.2 |
| 20260504225705 | 16 | 4 | 6.4 | 20.9 | 0.00 | 0.23 | 0.23 | 41 | 1011.2 |
| 20260504225205 | 17 | 0 | 9.7 | 16.1 | 0.00 | 0.23 | 0.23 | 40 | 1011.2 |
| 20260504224705 | 16 | 19 | 8.0 | 19.3 | 0.00 | 0.23 | 0.23 | 40 | 1011.2 |
| 20260504224205 | 16 | 341 | 4.8 | 14.5 | 0.00 | 0.23 | 0.23 | 41 | 1011.3 |
| 20260504223705 | 16 | 11 | 3.2 | 12.9 | 0.00 | 0.23 | 0.23 | 42 | 1011.2 |
| 20260504222705 | 16 | 340 | 1.6 | 9.7 | 0.00 | 0.23 | 0.23 | 42 | 1011.4 |
| 20260504222205 | 16 | 0 | 3.2 | 14.5 | 0.00 | 0.23 | 0.23 | 41 | 1011.4 |
| 20260504221706 | 16 | 10 | 8.0 | 19.3 | 0.00 | 0.23 | 0.23 | 40 | 1011.4 |
| 20260504221205 | 16 | 331 | 6.4 | 16.1 | 0.00 | 0.23 | 0.23 | 39 | 1011.3 |
| 20260504220705 | 16 | 345 | 4.8 | 16.1 | 0.00 | 0.23 | 0.23 | 38 | 1011.2 |
| 20260504220205 | 17 | 351 | 6.4 | 25.7 | 0.00 | 0.23 | 0.23 | 37 | 1011.0 |
| 20260504215705 | 17 | 27 | 8.0 | 19.3 | 0.00 | 0.23 | 0.23 | 35 | 1010.7 |
| 20260504215205 | 17 | 350 | 8.0 | 19.3 | 0.00 | 0.23 | 0.23 | 36 | 1010.6 |
| 20260504214706 | 17 | 8 | 3.2 | 24.1 | 0.00 | 0.23 | 0.23 | 35 | 1010.5 |
| 20260504214205 | 18 | 17 | 11.3 | 22.5 | 0.00 | 0.23 | 0.23 | 33 | 1010.4 |
| 20260504213705 | 19 | 20 | 8.0 | 32.2 | 0.00 | 0.23 | 0.23 | 32 | 1010.3 |
| 20260504213205 | 19 | 56 | 4.8 | 12.9 | 0.00 | 0.23 | 0.23 | 27 | 1009.9 |
| 20260504212706 | 19 | 52 | 4.8 | 9.7 | 0.00 | 0.23 | 0.23 | 30 | 1010.0 |
| 20260504212205 | 19 | 116 | 1.6 | 8.0 | 0.00 | 0.23 | 0.23 | 32 | 1009.9 |
| 20260504211705 | 18 | 193 | 1.6 | 4.8 | 0.00 | 0.23 | 0.23 | 34 | 1010.0 |
| 20260504211205 | 18 | 193 | 0.0 | 0.0 | 0.00 | 0.23 | 0.23 | 35 | 1010.1 |
| 20260504210705 | 18 | 193 | 0.0 | 1.6 | 0.00 | 0.23 | 0.23 | 34 | 1010.2 |
| 20260504210205 | 18 | 193 | 1.6 | 4.8 | 0.00 | 0.23 | 0.23 | 37 | 1010.3 |
| 20260504204705 | 17 | 325 | 0.0 | 3.2 | 0.00 | 0.23 | 0.23 | 43 | 1010.4 |
| 20260504204206 | 16 | 325 | 1.6 | 4.8 | 0.00 | 0.23 | 0.23 | 44 | 1010.5 |
| 20260504203205 | 15 | 325 | 0.0 | 3.2 | 0.00 | 0.23 | 0.23 | 47 | 1011.0 |
| 20260504202705 | 15 | 250 | 1.6 | 4.8 | 0.00 | 0.23 | 0.23 | 51 | 1011.0 |
| 20260504202205 | 15 | 11 | 0.0 | 1.6 | 0.03 | 0.23 | 0.23 | 49 | 1011.1 |
| 20260504201706 | 15 | 11 | 3.2 | 8.0 | 0.03 | 0.23 | 0.23 | 50 | 1011.2 |
| 20260504201204 | 14 | 47 | 3.2 | 8.0 | 0.08 | 0.23 | 0.23 | 52 | 1011.3 |
| 20260504200705 | 14 | 36 | 3.2 | 9.7 | 0.18 | 0.23 | 0.23 | 59 | 1011.4 |
| 20260504200206 | 13 | 9 | 3.2 | 12.9 | 0.23 | 0.23 | 0.23 | 58 | 1011.4 |
| 20260504195205 | 13 | 101 | 1.6 | 3.2 | 0.23 | 0.23 | 0.23 | 72 | 1011.1 |
| 20260504194705 | 13 | 101 | 0.0 | 1.6 | 0.23 | 0.23 | 0.23 | 74 | 1011.4 |
| 20260504194205 | 12 | 101 | 0.0 | 4.8 | 0.23 | 0.23 | 0.23 | 72 | 1011.5 |
| 20260504193705 | 13 | 188 | 1.6 | 3.2 | 0.23 | 0.23 | 0.23 | 72 | 1011.6 |
| 20260504192705 | 13 | 191 | 1.6 | 8.0 | 0.23 | 0.23 | 0.23 | 67 | 1011.8 |
| 20260504191704 | 15 | 198 | 4.8 | 14.5 | 0.20 | 0.20 | 0.20 | 57 | 1011.5 |
| 20260504191205 | 16 | 182 | 4.8 | 24.1 | 0.15 | 0.15 | 0.15 | 50 | 1011.2 |
| 20260504190705 | 17 | 200 | 11.3 | 41.8 | 0.05 | 0.05 | 0.05 | 41 | 1011.1 |
| 20260504190206 | 18 | 168 | 8.0 | 22.5 | 0.00 | 0.00 | 0.00 | 35 | 1010.9 |
| 20260504185205 | 19 | 177 | 14.5 | 25.7 | 0.00 | 0.00 | 0.00 | 27 | 1010.6 |
| 20260504184705 | 20 | 173 | 3.2 | 14.5 | 0.00 | 0.00 | 0.00 | 24 | 1010.6 |
| 20260504184205 | 20 | 32 | 9.7 | 20.9 | 0.00 | 0.00 | 0.00 | 23 | 1010.6 |
| 20260504183705 | 20 | 5 | 3.2 | 8.0 | 0.00 | 0.00 | 0.00 | 21 | 1010.4 |
| 20260504183206 | 20 | 78 | 4.8 | 16.1 | 0.00 | 0.00 | 0.00 | 23 | 1010.4 |
| 20260504182705 | 20 | 53 | 8.0 | 11.3 | 0.00 | 0.00 | 0.00 | 21 | 1010.3 |
| 20260504181705 | 21 | 297 | 6.4 | 14.5 | 0.00 | 0.00 | 0.00 | 22 | 1010.3 |
| 20260504181205 | 21 | 352 | 8.0 | 14.5 | 0.00 | 0.00 | 0.00 | 21 | 1010.3 |
| 20260504180705 | 21 | 339 | 6.4 | 19.3 | 0.00 | 0.00 | 0.00 | 21 | 1010.4 |
| 20260504180205 | 21 | 14 | 8.0 | 20.9 | 0.00 | 0.00 | 0.00 | 21 | 1010.4 |
| 20260504175705 | 22 | 14 | 6.4 | 16.1 | 0.00 | 0.00 | 0.00 | 22 | 1010.4 |
| 20260504175204 | 22 | 350 | 9.7 | 22.5 | 0.00 | 0.00 | 0.00 | 21 | 1010.5 |
| 20260504174705 | 22 | 358 | 3.2 | 9.7 | 0.00 | 0.00 | 0.00 | 23 | 1010.5 |
| 20260504174205 | 22 | 355 | 3.2 | 14.5 | 0.00 | 0.00 | 0.00 | 23 | 1010.6 |
| 20260504173705 | 22 | 22 | 6.4 | 14.5 | 0.00 | 0.00 | 0.00 | 22 | 1010.7 |
| 20260504172705 | 22 | 48 | 4.8 | 9.7 | 0.00 | 0.00 | 0.00 | 23 | 1011.0 |
| 20260504172205 | 22 | 34 | 4.8 | 9.7 | 0.00 | 0.00 | 0.00 | 23 | 1010.9 |
| 20260504171704 | 21 | 355 | 1.6 | 8.0 | 0.00 | 0.00 | 0.00 | 24 | 1011.0 |
| 20260504171205 | 21 | 71 | 3.2 | 8.0 | 0.00 | 0.00 | 0.00 | 24 | 1011.1 |
| 20260504160204 | 18 | 223 | 1.6 | 4.8 | 0.00 | 0.00 | 0.00 | 29 | 1011.8 |